Max Valier Sat
1 42778U 17036P 20072.59934094 .00000716 00000-0 33870-4 0 9998
2 42778 97.3182 128.8561 0012310 11.5314 348.6203 15.22442732150995
Pegasus
1 42784U 17036V 20072.21342776 .00000874 00000-0 40056-4 0 9993
2 42784 097.3147 128.7381 0012231 017.8655 342.3010 15.23003318150970
NUDATSat
1 42787U 17036Y 20072.21938593 .00001488 00000-0 63818-4 0 9997
2 42787 097.3202 129.9242 0012963 010.5194 349.6310 15.24211712150887
SUCHAI 1
1 42788U 17036Z 20072.20583472 .00001060 00000-0 47231-4 0 9996
2 42788 097.3154 129.2325 0011731 016.7923 343.3700 15.23512469151077
SKCUBE
1 42789U 17036AA 20072.11099234 .00001043 00000-0 46728-4 0 9996
2 42789 097.3150 129.0210 0011640 017.4960 342.6676 15.23372158150974
VZLUSAT 1
1 42790U 17036AB 20072.20769707 .00001348 00000-0 58119-4 0 9992
2 42790 097.3171 129.9090 0011059 015.7406 344.4174 15.24199838151038
VENTA 1
1 42791U 17036AC 20072.21566352 .00000961 00000-0 43274-4 0 9991
2 42791 097.3148 129.1697 0011301 017.9250 342.2383 15.23363735150988
Robusta 1B
1 42792U 17036AD 20072.40507618 .00001012 00000-0 45176-4 0 9994
2 42792 97.3151 129.5292 0011185 17.3106 342.8510 15.23557331151045
D-SAT
1 42794U 17036AF 20072.41656972 .00000053 00000-0 10135-4 0 9996
2 42794 97.5063 109.8134 0125374 329.5027 29.8941 14.91232519148232
TechnoSat
1 42829U 17042E 20072.58191324 .00000071 00000-0 12558-4 0 9996
2 42829 97.5341 318.8317 0012768 245.5969 114.3918 14.91065639144854
QIKCOM-1
1 42983U 98067NF 20072.58688554 .00003677 00000-0 49512-4 0 9994
2 42983 51.6386 73.5239 0004542 56.1830 303.9596 15.60740361135157
AO-91
1 43017U 17073E 20071.95948690 .00000769 00000-0 65067-4 0 9993
2 43017 097.7262 347.9429 0257658 008.3214 352.2147 14.78830939124754
EcAMSat
1 43019U 98067NG 20072.15998915 .00006405 00000-0 70396-4 0 9999
2 43019 51.6403 64.7441 0004739 43.8343 316.3027 15.64631521217558
PICSAT
1 43132U 18004X 20072.15843809 .00001062 00000-0 46559-4 0 9997
2 43132 97.4565 144.0680 0010586 43.6233 316.5839 15.24169631120236
AO-92
1 43137U 18004AC 20072.17973385 .00000780 00000-0 35216-4 0 9991
2 43137 97.4552 143.9665 0010256 45.5438 314.6636 15.23929898120221
TianYi 2
1 43155U 18008A 20072.70812427 .00000240 00000-0 17880-4 0 9991
2 43155 97.4561 144.2291 0019222 119.0199 38.4083 15.11490150118307
Zhou Enlai
1 43156U 18008B 20072.70894899 .00000289 00000-0 20999-4 0 9993
2 43156 97.4607 144.0885 0016409 116.9720 40.8848 15.11019554118262
TianYi 6
1 43158U 18008D 20072.69018058 .00000447 00000-0 30850-4 0 9991
2 43158 97.4571 143.2480 0015143 115.4416 2.9114 15.10568491118214
S-Net G
1 43186U 18014G 20072.38042328 -.00000140 00000-0 -71529-5 0 9993
2 43186 97.7004 341.7679 0010641 181.4469 178.6724 14.96767359115170
S-Net H
1 43187U 18014H 20072.17968355 -.00000100 00000-0 -36462-5 0 9991
2 43187 097.7002 341.5515 0010637 181.9768 178.1413 14.96767369115146
S-Net J
1 43188U 18014J 20072.17953750 -.00000090 00000-0 -27650-5 0 9992
2 43188 097.7005 341.5773 0010642 182.0689 178.0491 14.96767061115140
S-Net K
1 43189U 18014K 20072.38047860 -.00000148 00000-0 -78464-5 0 9995
2 43189 97.7002 341.7452 0010632 181.3735 178.7459 14.96766543113724
FMN 1
1 43192U 18015A 20072.64585176 .00001889 00000-0 77811-4 0 9991
2 43192 97.4270 202.7232 0017499 73.6060 52.5775 15.25230097117149
Shaonian Xing
1 43199U 18015H 20072.71450222 .00001431 00000-0 59127-4 0 9992
2 43199 97.4057 201.3121 0018708 82.0225 25.2018 15.25490679117211
1KUNS-PF
1 43466U 98067NP 20072.32493611 .00062650 00000-0 28759-3 0 9996
2 43466 51.6317 42.9529 0003338 95.3031 264.8353 15.83037926105031
UBAKUSAT
1 43467U 98067NQ 20072.41089804 .00018965 00000-0 15498-3 0 9998
2 43467 51.6343 59.4377 0002519 44.3434 315.7765 15.70602207104832
EnduroSat One
1 43551U 98067NZ 20072.24498596 .00028889 00000-0 20757-3 0 9995
2 43551 051.6335 060.5600 0005805 081.2044 278.9612 15.73367465095036
EQUISat
1 43552U 98067PA 20072.40959368 .00018720 00000-0 16019-3 0 9992
2 43552 51.6367 65.5124 0006149 77.5815 282.5870 15.69480392 94940
UiTMSat 1
1 43589U 98067PD 20072.11840650 .00022471 00000-0 18027-3 0 9992
2 43589 051.6334 066.4247 0005620 083.2447 276.9190 15.70909977090640
Maya 1
1 43590U 98067PE 20072.17508330 .00022280 00000-0 17871-3 0 9990
2 43590 51.6332 66.0620 0005675 83.8579 276.3065 15.70919431 90587
Bhutan 1
1 43591U 98067PF 20072.15457444 .00022597 00000-0 18052-3 0 9991
2 43591 051.6348 065.9770 0005826 084.2570 275.9091 15.71005591090581
SiriusSat 1
1 43595U 98067PG 20072.14133382 .00020685 00000-0 17778-3 0 9996
2 43595 051.6336 069.6015 0003988 055.7378 304.3996 15.69307907089718
SiriusSat 2
1 43596U 98067PH 20072.38770354 .00020547 00000-0 17720-3 0 9993
2 43596 51.6346 69.0625 0004456 54.5088 305.6324 15.69226511 89740
Tanusha-3
1 43597U 98067PJ 20072.14570981 .00037586 00000-0 25402-3 0 9999
2 43597 51.6324 62.7873 0004489 70.7888 289.3596 15.74662640 89805
SurfSat
1 43614U 18070B 20072.19405426 .00001976 00000-0 51728-4 0 9996
2 43614 093.0263 114.3898 0015209 004.2771 355.8609 15.38715096083524
CP-7 DAVE
1 43615U 18070C 20072.08700968 .00002174 00000-0 57113-4 0 9999
2 43615 93.0266 114.3410 0015371 4.0129 356.1245 15.38595544 83505
ELFIN-B
1 43616U 18070D 20072.20595369 .00002649 00000-0 67015-4 0 9990
2 43616 093.0228 114.3074 0015917 005.8037 354.3399 15.39722441083557
ELFIN-A
1 43617U 18070E 20072.24962589 .00002985 00000-0 75157-4 0 9996
2 43617 93.0282 114.7563 0015079 2.7107 357.4226 15.39868595 83563
STARS-Me Mother
1 43640U 98067PQ 20072.15015749 .00009339 00000-0 10536-3 0 9992
2 43640 051.6349 081.0033 0005356 031.0291 329.1019 15.63290829081499
CubeBel 1
1 43666U 18083E 20072.68662966 .00000902 00000-0 47538-4 0 9997
2 43666 97.4984 100.0664 0014306 344.0834 154.7260 15.18068183 75935
Changshagaoxin
1 43669U 18083H 20072.59538704 .00000630 00000-0 35121-4 0 9995
2 43669 97.4867 98.4640 0010104 338.9831 21.0986 15.17146735 75843
Ten-Koh
1 43677U 18084G 20072.06488090 .00000189 00000-0 25313-4 0 9990
2 43677 97.8699 189.4406 0017363 117.8044 242.4936 14.90255271 74438
PO-101
1 43678U 18084H 20072.67441631 -.00000260 00000-0 -20174-4 0 9990
2 43678 97.8701 191.1633 0011136 131.1892 229.0300 14.91607454 74595
IRVINE 01
1 43693U 18088D 20072.16287876 .00001942 00000-0 82023-4 0 9991
2 43693 085.0365 141.4020 0015501 291.3821 068.5767 15.22444757074049
QO-100
1 43700U 18090A 20072.15049215 .00000125 00000-0 00000-0 0 9998
2 43700 000.0108 214.1520 0002422 167.4268 228.6433 01.00272225004737
Reaktor Hello World
1 43743U 18096AA 20072.68723413 .00001120 00000-0 44628-4 0 9992
2 43743 97.4301 147.0268 0019822 108.6250 42.4227 15.27177434 71627
MinXSS-2
1 43758U 18099A 20071.85419129 -.00000052 00000-0 49618-6 0 9995
2 43758 97.7151 145.3520 0016383 151.4635 208.7486 14.95591985 69360
AO-95
1 43770U 18099N 20072.45576062 -.00000036 00000-0 19119-5 0 9990
2 43770 97.7147 145.4898 0015283 156.1310 204.0622 14.94923766 69421
RANGE-B
1 43772U 18099Q 20072.21997005 .00000779 00000-0 76185-4 0 9998
2 43772 097.7212 145.6597 0015254 144.4367 215.7873 14.95094014069382
RANGE-A
1 43773U 18099R 20072.17779821 -.00000231 00000-0 -15924-4 0 9997
2 43773 097.7093 144.9299 0014459 144.4125 215.8063 14.94920493069378
MOVE-II
1 43780U 18099Y 20072.43032509 .00000438 00000-0 44855-4 0 9991
2 43780 97.7149 145.6149 0014412 153.2325 206.9643 14.95303956 69419
